TIME,DELAY(SENSOR),PRES,OXYGEN,RAWTEMP,T(OPTODE),TCPHASE,FLUOR,BETA(BETA700),BETA(BETA412),BETA(BETA440),CDOM,C(CSC),ED(ED411.90),ED(ED443.80),ED(ED489.40),ED(ED554.70),LU(LU412.20),LU(LU443.80),LU(LU489.40),LU(LU555.00),COMP,TILTX,TILTY,CHECK
1377732002,5807,916.2199707031250000,111.1128005981445300,417.3750915527344000,10.0724296569824220,43.6029586791992200,91,3174,49,50,56,10198,2146964397,2147514066,2147290962,2147495113,2147083858,2146931337,2147702939,2147127314,2715,-1,8,23943
1377735598,5807,1059.4599609375000000,139.8260955810547000,500.3492126464844000,7.5186610221862790,42.2636413574218750,93,3183,49,50,56,10201,2146963812,2147517961,2147297334,2147510070,2147086326,2146921545,2147713462,2147121316,3556,-1,8,16750
1377739198,5806,1085.0200195312500000,157.6143035888672000,521.5618286132812000,6.8589692115783690,41.1953582763671900,94,3176,49,50,55,10193,2146965421,2147514240,2147299520,2147513289,2147087524,2146919853,2147720283,2147122276,3334,-1,8,37141
1377742798,5805,1088.5400390625000000,162.3256988525390600,523.5781860351562000,6.7960958480834960,40.8734092712402340,94,3181,49,50,55,10184,2146966729,2147514633,2147301696,2147513627,2147082934,2146920237,2147725092,2147123904,370,-1,8,22608
1377746398,5805,1090.0000000000000000,162.4438018798828000,521.7847900390625000,6.8520159721374510,40.8338317871093750,94,3179,50,50,56,10190,2146965741,2147518838,2147300553,2147513590,2147084726,2146917165,2147720713,2147122267,157,-1,8,35412
1377749998,5806,1091.1999511718750000,163.3099975585937500,523.2642211914062000,6.8058872222900390,40.7950096130371100,94,3175,49,51,55,10187,2146968100,2147519652,2147300617,2147512804,2147088265,2146915977,2147719524,2147120850,543,-1,8,25437
1377753598,5807,1096.0600585937500000,175.6067047119140600,524.8076171875000000,6.7577471733093260,39.9369010925293000,94,3173,49,50,55,10187,2146964525,2147518162,2147299382,2147512795,2147085997,2146919606,2147718189,2147123328,986,-1,8,17702
1377757198,5803,1084.6400146484375000,148.8011932373047000,514.5551147460938000,7.0772180557250980,41.7644691467285160,94,3164,49,50,55,10202,2146965558,2147519890,2147300205,2147512365,2147084836,2146925193,2147721280,2147121097,3277,-1,8,6448
1377760798,5805,1083.7800292968750000,123.2116012573242200,514.0465087890625000,7.0930452346801760,43.9586906433105500,94,3161,48,50,55,10195,2146964150,2147518491,2147298569,2147511872,2147086308,2146919186,2147720886,2147122395,258,-1,8,61124
1377764398,5802,1081.9699707031250000,145.3180999755859400,513.9647827148438000,7.0955891609191895,42.0376586914062500,94,3168,49,51,56,10197,2146966729,2147517293,2147300617,2147514432,2147087286,2146916498,2147720237,2147120438,3050,-1,8,29657
1377767998,5807,1070.6999511718750000,143.9541015625000000,504.7499084472656000,7.3820571899414060,41.9921607971191400,94,3175,50,50,55,10189,2146966372,2147519579,2147301723,2147509257,2147085321,2146924571,2147714057,2147122742,402,-1,8,33755
1377771598,5809,1070.7800292968750000,160.4331054687500000,504.2672119140625000,7.3970460891723630,40.6804199218750000,94,3183,48,50,55,10191,2146967104,2147515648,2147298294,2147511067,2147088027,2146923876,2147714349,2147121014,2697,-1,8,1662
1377775198,5804,1069.2700195312500000,160.4465026855468800,504.4476013183594000,7.3914442062377930,40.6823692321777340,94,3190,48,50,56,10195,2146965686,2147517915,2147298304,2147513435,2147082907,2146918957,2147717504,2147124498,2899,-1,8,14740
1377778798,5806,1043.9799804687500000,146.7525939941406200,497.6765136718750000,7.6015620231628420,41.6418190002441400,94,3194,49,50,55,10193,2146965604,2147516507,2147298066,2147510345,2147085805,2146924068,2147716041,2147120356,22,0,8,18247
1377782398,5808,1045.8299560546875000,109.4926986694336000,497.6843872070312500,7.6013150215148930,45.0126304626464840,95,3198,48,51,55,10195,2146966299,2147516470,2147303817,2147507245,2147085037,2146921801,2147714230,2147120237,3584,-1,8,2558
1377785998,5809,1037.0200195312500000,153.5249938964843800,499.7684020996094000,7.5366778373718260,41.1358299255371100,94,3207,48,51,55,10193,2146965357,2147517504,2147301458,2147509065,2147084598,2146921499,2147714614,2147122605,543,-1,8,16826
1377789598,5804,1027.9899902343750000,149.0178985595703000,488.5567016601562500,7.8840818405151370,41.3051109313964840,95,3208,50,50,55,10195,2146961481,2147517458,2147299629,2147507008,2147086308,2146928777,2147716278,2147121773,2800,-1,8,27472
1377793198,5804,1027.6199951171875000,76.0261077880859400,487.5512084960937500,7.9151968955993650,48.5661582946777340,95,3210,48,50,56,10192,2146966043,2147516178,2147299556,2147510994,2147083776,2146927076,2147709302,2147122340,3543,-1,8,49637
1377796798,5805,1024.3299560546875000,109.8000030517578100,487.9338073730469000,7.9033570289611820,44.8284492492675800,95,3219,49,49,55,10184,2146964050,2147518070,2147302144,2147506432,2147084278,2146925632,2147716333,2147121910,2958,-1,8,27148
1377800398,5805,1027.5799560546875000,97.2722167968750000,487.1234130859375000,7.9284348487854000,46.1184883117675800,96,3222,49,50,55,10192,2146963648,2147519323,2147298093,2147509869,2147083062,2146921664,2147713261,2147119625,3245,-1,8,49834
1377803998,5806,1028.3100585937500000,87.7421188354492200,486.5887145996094000,7.9449782371521000,47.1650390625000000,95,3227,49,51,55,10191,2146965074,2147515501,2147299693,2147504338,2147085513,2146921517,2147710857,2147121170,3195,0,8,42424
1377807598,5807,1034.3000488281250000,121.4181976318359400,486.1633911132812500,7.9581351280212400,43.6717491149902340,96,3225,50,51,54,10190,2146964662,2147518637,2147296484,2147506139,2147085220,2146918518,2147710546,2147125257,3555,-1,8,10202
1377811198,5809,1031.9699707031250000,139.6392059326172000,484.2531127929687500,8.0172166824340820,42.0101203918457000,94,3223,49,50,56,10190,2146964644,2147514075,2147297316,2147510061,2147083611,2146925796,2147714944,2147122285,393,-1,8,21127
1377814798,5806,1031.2900390625000000,126.9917984008789000,485.8218078613281000,7.9686999320983890,43.1502494812011700,96,3219,49,51,56,10189,2146964333,2147514962,2147296109,2147508086,2147086061,2146919716,2147706907,2147122651,497,0,8,52430
1377818398,5805,1024.0000000000000000,117.5334014892578100,476.4031982421875000,8.2597608566284180,43.8854713439941400,96,3217,48,51,55,10190,2146965275,2147516772,2147297389,2147510564,2147084937,2146926464,2147709028,2147124324,3396,-1,8,18122
1377821998,5806,1016.0000000000000000,118.1602020263671900,476.7390136718750000,8.2493915557861330,43.8294906616210940,96,3211,49,50,54,10189,2146963657,2147518107,2147297600,2147503908,2147085220,2146924242,2147713801,2147121142,97,0,8,17438
1377825598,5806,1016.3499755859375000,122.2164001464843800,476.0470886230469000,8.2707519531250000,43.4326095581054700,97,3212,49,51,54,10188,2146963657,2147518006,2147294061,2147506276,2147080932,2146928676,2147713536,2147124169,3497,-1,8,56059
1377829198,5806,1015.8099975585938000,129.5457000732422000,476.6293029785156000,8.2527799606323240,42.7693290710449200,96,3210,49,50,56,10186,2146965888,2147515392,2147294921,2147505216,2147085248,2146924589,2147709046,2147124982,1023,-1,8,29972
1377832798,5805,1019.3599853515625000,138.5910949707031200,475.9400024414062500,8.2740592956542970,41.9604911804199200,97,3212,49,51,56,10179,2146964635,2147516781,2147295451,2147504630,2147084233,2146918354,2147709193,2147126253,3060,-1,8,57530
1377836398,5806,1015.0100097656250000,118.2844009399414000,476.8133850097656000,8.2470951080322270,43.8200492858886700,96,3210,49,50,55,10181,2146962980,2147514313,2147296301,2147502153,2147080914,2146923181,2147711076,2147123721,96,-1,8,47585
1377839998,5805,1018.8800048828125000,139.0729980468750000,475.8317871093750000,8.2774009704589840,41.9176712036132800,97,3212,49,50,55,10174,2146965878,2147518893,2147296393,2147500800,2147084726,2146918957,2147714011,2147121856,3324,-1,8,40797
1377843598,5806,1017.7000122070312000,150.6535949707031200,476.8367004394531000,8.2463769912719730,40.9740600585937500,97,3216,48,50,55,10178,2146967616,2147514925,2147298212,2147504054,2147084406,2146923931,2147710144,2147123465,3394,-1,8,46555
1377847198,5808,1016.1500244140625000,136.9203033447265600,477.3692016601562500,8.2299318313598630,42.1294403076171900,96,3220,48,51,55,10172,2146965851,2147511680,2147294070,2147508032,2147086326,2146923273,2147713362,2147123602,2706,-1,8,54135
1377850798,5807,1014.1799926757812000,147.6194000244140600,477.3988952636719000,8.2290163040161130,41.2300415039062500,97,3220,49,50,56,10173,2146965622,2147515949,2147298477,2147507885,2147084790,2146924032,2147711689,2147121334,2707,-1,8,54665
1377854398,5804,1021.4799804687500000,141.6029968261718800,476.7426147460937500,8.2492828369140620,41.7188911437988300,97,3221,49,51,55,10177,2146962304,2147515309,2147296018,2147505024,2147086162,2146919222,2147713664,2147123099,3066,-1,8,44191
1377857998,5809,1020.8200073242188000,153.4833068847656200,476.4627075195312500,8.2579231262207030,40.7437782287597660,96,3222,49,50,55,10170,2146965449,2147516882,2147294546,2147506642,2147084864,2146925540,2147710162,2147123602,54,-1,8,4417
1377861598,5805,1026.1300048828125000,150.8739013671875000,473.4159851074219000,8.3519582748413090,40.9000892639160160,97,3222,49,50,55,10172,2146963364,2147515812,2147297508,2147503451,2147085357,2146925531,2147711990,2147119570,3315,-1,8,33634
1377865198,5807,1020.9199829101562000,144.5765991210937500,476.1860046386719000,8.2664651870727540,41.4606094360351560,98,3227,49,51,55,10170,2146966326,2147516708,2147296804,2147504576,2147082953,2146923026,2147708608,2147124553,76,0,8,51384
1377868798,5805,1020.2500000000000000,156.6089935302734400,477.1741943359375000,8.2359552383422850,40.5106010437011700,97,3229,49,51,54,10170,2146966317,2147517741,2147296082,2147503369,2147080128,2146918692,2147710235,2147121572,487,-1,8,17685
1377869455,5806,1020.0200195312500000,157.7843017578125000,477.1968994140625000,8.2352542877197270,40.4190216064453100,97,3228,49,51,55,10175,2146966866,2147513462,2147291456,2147508068,2147084818,2146927332,2147712466,2147122368,427,0,8,40769
